Regional Weather Roundup
Issued by NWS

Home | Current Version | Previous Version | Graphics & Text | Print | Product List | Glossary On
Versions: 1 2 3 4 5 6 7 8 9 10 11 12 13 14 15 16 17 18 19 20 21 22 23 24 25 26 27 28 29 30 31 32 33 34 35 36 37 38 39 40 41 42 43 44 45 46 47 48 49 50
000
ASUS45 KTFX 011504
RWRMT
MONTANA HOURLY WEATHER ROUNDUP
NATIONAL WEATHER SERVICE GREAT FALLS MT
904 AM MDT MON SEP 1 2014

NOTE: "FAIR" INDICATES FEW OR NO CLOUDS BELOW 12000 FEET WITH NO
SIGNIFICANT WEATHER AND/OR OBSTRUCTIONS TO VISIBILITY.

* THESE STATIONS ARE NOT UNDER NWS QUALITY CONTROL. THEY DO NOT
   REPORT WEATHER SUCH AS PRECIPITATION OR FOG.

MTZ001>007-043-011600-
WEST OF THE DIVIDE
CITY           SKY/WX    TMP DP  RH WIND       PRES   REMARKS
KALISPELL      CLOUDY    50  48  93 CALM      30.03R
MISSOULA       PTCLDY    43  41  93 CALM      30.09S
BUTTE          PTCLDY    45  37  74 CALM      30.11R
MULLAN PASS    SUNNY     43  37  79 VRB3      30.09S
* LINCOLN      N/A       46  40  80 NE3        N/A
* LOOKOUT PASS N/A       45  40  83 NE3        N/A
* POLSON       N/A       50  46  86 S1         N/A
* RONAN APT    PTSUNNY   54  46  74 N/A        N/A
* SEELEY LAKE  N/A       38  37  96 NE1        N/A
* THOMP F APT  SUNNY     48  38  68 NE3G12     N/A
$$

MTZ008-052>055-011600-
SOUTHWEST MONTANA
CITY           SKY/WX    TMP DP  RH WIND       PRES   REMARKS
BOZEMAN        CLOUDY    54  43  67 CALM      30.07R
DILLON         PTCLDY    48  39  71 CALM      30.09R
W YELLOWSTONE  FOG       41  41 100 N5        30.12R VSB 3/4
* THREE FORKS  SUNNY     52  34  50 N/A        N/A
* BOULDER HILL N/A       51  32  48 SW4G9      N/A
* MONIDA PASS  N/A       45  37  74 W9G14      N/A
* RAYNOLDS PAS N/A       43 -10  10 N3         N/A
* WHITEHALL    N/A       51  45  80 N3         N/A
* WISE RIVER   N/A       36  34  92 SE1        N/A
$$

MTZ009>010-012-014-046-048-049-054-011600-
EAST SLOPES AND CENTRAL MONTANA
CITY           SKY/WX    TMP DP  RH WIND       PRES   REMARKS
CUT BANK       SUNNY     59  39  48 W23       29.94S
GREAT FALLS    PTCLDY    57  39  51 SW14      29.97R
HELENA         PTCLDY    59  39  48 SW6       30.03F
MALMSTROM AFB  PTCLDY    57  39  51 SW15G21   29.98S
* CONRAD       PTCLDY    59  45  60 SW8        N/A
* EAST GLACIER N/A       50  40  69 W15G22     N/A
* MONARCH      N/A       44  35  71 S6         N/A
* PENDROY      N/A       56  39  53 NW14       N/A
* ROGERS PASS  N/A       46  36  68 SE11G20    N/A
* SAINT MARY   N/A       52  40  64 S6G15      N/A
* SWEET GRASS  N/A       55  39  55 W14G19     N/A
$$

MTZ011-013-016-021-035-040-045-047-050-051-011600-
NORTH CENTRAL MONTANA
CITY           SKY/WX    TMP DP  RH WIND       PRES   REMARKS
HAVRE          SUNNY     57  43  60 SW14      29.91S
LEWISTOWN      PTCLDY    55  37  51 W7        29.99R
* CHESTER      N/A       53  41  64 W2         N/A
* DENTON       N/A       58  41  53 W10        N/A
* GEYSER       N/A       56  40  55 W8         N/A
* JUDITH GAP   N/A       54  42  64 NE6        N/A
* LOMA         N/A       57  43  60 SW11       N/A
$$

MTZ017>020-022>027-061-062-011600-
NORTHEAST MONTANA
CITY           SKY/WX    TMP DP  RH WIND       PRES   REMARKS
GLASGOW        PTSUNNY   54  50  86 W5        29.87S
GLENDIVE       PTSUNNY   61  52  72 W6        29.90S
JORDAN         PTSUNNY   57  46  67 W8        29.90R
SIDNEY         PTCLDY   N/A N/A N/A W6        29.88R
WOLF POINT     PTSUNNY   57  48  72 W7        29.87S
* BEAVER HILL  N/A       60  50  70 W3G8       N/A
* CIRCLE       N/A       52  50  93 N/A        N/A
* LINDSAY DVD  N/A       58  47  67 W9         N/A
* NAVAJO       N/A       55  45  69 NW14       N/A
* SACO         N/A       55  48  77 N/A        N/A
$$

MTZ028>042-056>058-011600-
SOUTHCENTRAL AND SOUTHEAST MONTANA
CITY           SKY/WX    TMP DP  RH WIND       PRES   REMARKS
BAKER          PTSUNNY   59  48  67 W12       29.91S
BILLINGS       PTCLDY    54  48  80 SW13      29.99R
LIVINGSTON     PTSUNNY   55  43  64 W10       30.04R
MILES CITY     CLOUDY    59  46  62 W8        29.92R
* LAUREL APT   PTCLDY    54  46  74 N/A        N/A
* ROUNDUP APT  PTCLDY    54  43  67 S7         N/A
* ALZADA       N/A       58  49  72 SW7        N/A
* HYSHAM       N/A       55  46  72 W6         N/A
* LAME DEER    N/A       52  45  77 W9         N/A
* REED POINT   N/A       60  40  48 W7         N/A
* ROSCOE HILL  N/A       49  40  71 S7         N/A
$$

REGIONAL REPORTS...DAKOTAS
CITY           SKY/WX    TMP DP  RH WIND       PRES   REMARKS
WILLISTON      SUNNY     61  52  72 W13       29.85R
DICKINSON      PTSUNNY   59  50  72 W13       29.84R
BEACH          N/A       59  52  78 NW8       29.89S
CROSBY         SUNNY     59  50  72 W9        29.83R
TIOGA          SUNNY     55  55 100 W9        29.86R
WATFORD CITY   SUNNY     57  52  83 W6        29.84R
BISMARCK       SUNNY     61  54  78 NW8       29.80S
GRAND FORKS    SUNNY     64  57  78 W5        29.70S
FARGO          SUNNY     64  57  78 N5        29.72R
BUFFALO SD     PTCLDY    61  48  62 W15       29.83R
RAPID CITY     PTSUNNY   64  52  65 NW6       29.93S
$$

REGIONAL REPORTS...WYOMING/IDAHO/WASHINGTON
CITY           SKY/WX    TMP DP  RH WIND       PRES   REMARKS
GILLETTE       CLOUDY    57  45  64 NW6       30.00R
SHERIDAN       CLOUDY    54  45  72 NW20G28   30.02R
CODY           PTCLDY   N/A N/A N/A N/A        N/A
SALMON         SUNNY     54  43  67 CALM      30.09S
MULLAN PASS    SUNNY     43  37  79 VRB3      30.09S
SAND POINT     SUNNY     55  46  72 S5        30.04R
SPOKANE        SUNNY     50  39  66 S8        30.04R

$$



USA.gov is the U.S. government's official web portal to all federal, state and local government web resources and services.